Location: Pinhey's Point
(45.4411°N, 75.9539°W)
Time: 12:33:41
(UTC-04:00)

Iridium 65 - Visible Passes

Search period start: 02 July 2015 00:00
Search period end: 12 July 2015 00:00
Orbit: 776 x 779 km, 86.4° (Epoch: 02 July)

Date Brightness Start Highest point End Pass type
(mag) Time Alt. Az. Time Alt. Az. Time Alt. Az.
02 Jul 6.1 04:38:55 10° N 04:44:07 64° E 04:49:17 10° SSE visible
03 Jul 7.1 04:05:38 10° NNE 04:10:25 36° ENE 04:15:14 10° SE visible
04 Jul 7.9 03:32:42 10° NNE 03:36:35 21° ENE 03:40:35 10° ESE visible
05 Jul 8.3 03:00:39 10° NE 03:02:35 12° ENE 03:04:47 10° E visible
05 Jul 5.6 04:38:59 10° N 04:44:14 90° ENE 04:49:28 10° S visible
06 Jul 6.4 04:05:33 10° N 04:10:38 51° E 04:15:43 10° SSE visible
07 Jul 7.4 03:32:24 10° NNE 03:36:54 29° ENE 03:41:27 10° SE visible
08 Jul 8.1 02:59:41 10° NNE 03:02:59 17° ENE 03:06:29 10° ESE visible
08 Jul 5.6 04:39:08 10° N 04:44:19 65° W 04:49:28 10° S visible
09 Jul 5.8 04:05:34 10° N 04:10:49 72° E 04:16:01 10° S visible
10 Jul 6.8 03:32:14 10° N 03:37:09 41° E 03:42:04 10° SSE visible
11 Jul 7.6 02:59:13 10° NNE 03:03:21 24° ENE 03:07:34 10° SE visible
11 Jul 5.9 04:39:23 10° NNW 04:44:22 45° W 04:49:18 10° SSW visible
